www.pogodaiklimat.ru

Погода и климат >> Архив погоды >> Саудовская Аравия >> Makkah


АРХИВ ПОГОДЫ в Makkah

Время (UTC), дата Ветер
(напр.,м/с)
 
Видим.   Явления Облачность Т
(С)
Тd
(С)
f
(%)
Тe
(С)
Тes
(С)
Комфортность P
(гПа)
Po
(гПа)
Тmin
(С)
Tmax
(С)
R
(мм)
R24
(мм)
S
(см)
00 10.08 Ю 2 10 км ясно +30.7 +24.0 68 +43 +43 опасность
перегрева
1001.0 975.1
03 10.08 штиль 0 10 км ясно +30.3 +24.0 69 +42 +42 опасность
перегрева
1001.4 975.4
06 10.08 штиль 0 10 км ясно +32.8 +24.0 60 +45 +58 опасность
перегрева
1001.9 975.8 +29.6
09 10.08 штиль 0 10 км ясно +39.4 +24.0 42 +51 +80 опасность
перегрева
1000.1 974.2
12 10.08 Ю 3 10 км ясно +43.1 +23.0 32 +52 +63 опасность
перегрева
997.6 971.9
15 10.08 Ю 2 10 км 3/0
[Ci fib]
+38.6 +24.0 44 +50 +51 опасность
перегрева
998.7 972.7
18 10.08 СЗ 1 10 км 4/0
[Ci fib]
+36.6 +25.0 52 +50 +50 опасность
перегрева
999.9 973.9 +44.0
21 10.08 С 1 10 км ясно +35.0 +24.0 53 +47 +47 опасность
перегрева
999.2 973.4
00 11.08 штиль 0 10 км ясно +33.4 +23.0 55 +44 +44 опасность
перегрева
997.8 972.2
03 11.08 Ю 2 9000 м мгла 4/3 1200 м
[St]
+31.0 +27.0 79 +48 +48 опасность
перегрева
999.8 973.8
06 11.08 Ю 1 10 км 4/4 900 м
[Sc]
+32.0 +26.0 71 +48 +55 опасность
перегрева
1001.1 975.1 +30.0
09 11.08 Ю 3 10 км ясно +38.0 +25.0 48 +51 +69 опасность
перегрева
999.8 974.0
12 11.08 ЮЗ 3 10 км 1/0
[Ci fib]
+41.4 +17.0 24 +44 +55 опасность
перегрева
999.1 973.4
15 11.08 ЮЗ 1 10 км ясно +39.8 +19.0 30 +44 +45 опасность
перегрева
998.7 972.8
18 11.08 штиль 0 10 км ясно +36.4 +22.0 43 +44 +44 опасность
перегрева
999.6 973.6 +42.0
21 11.08 Ю 2 10 км 3/0
[Ac trans]
+33.8 +24.0 57 +46 +46 опасность
перегрева
1000.1 974.2
00 12.08 Ю 2 10 км 3/0
[Ac trans]
+30.8 +25.0 71 +44 +44 опасность
перегрева
999.4 973.6
03 12.08 Ю 2 10 км 1/0
[Ac trans]
+30.0 +25.0 75 +43 +43 опасность
перегрева
1000.6 974.6
06 12.08 Ю 3 10 км 4/4 1200 м
[Sc diur, vesp]
+31.2 +26.0 74 +47 +52 опасность
перегрева
1003.0 976.9 +29.0
09 12.08 ЮЗ 5 10 км 3/0
[Ac trans]
+38.3 +22.0 39 +46 +55 опасность
перегрева
1001.8 975.9
12 12.08 ЮЗ 3 10 км ясно +40.8 +18.0 27 +44 +55 опасность
перегрева
1000.3 974.4
15 12.08 Ю 1 10 км 4/0
[Ac trans]
+39.0 +19.0 31 +43 +44 опасность
перегрева
999.7 973.7
18 12.08 штиль 0 10 км ясно +35.0 +21.0 44 +42 +42 опасность
перегрева
1001.0 974.9 +42.4
21 12.08 штиль 0 10 км ясно +33.2 +22.0 52 +42 +42 опасность
перегрева
1001.2 975.3
00 13.08 штиль 0 10 км ясно +35.0 +21.0 44 +42 +42 опасность
перегрева
999.8 974.1
03 13.08 штиль 0 10 км ясно +31.0 +23.0 62 +41 +41 опасность
перегрева
1001.3 975.3
06 13.08 Ю 2 10 км ясно +33.4 +24.0 58 +45 +55 опасность
перегрева
1002.8 976.7 +30.0
09 13.08 Ю 3 10 км ясно +39.6 +21.0 34 +46 +64 опасность
перегрева
1002.4 976.5
12 13.08 ЮЗ 4 6000 м пыль ясно +41.3 +20.0 30 +47 +56 опасность
перегрева
1000.9 975.1
15 13.08 СВ 2 10 км 4/0
[Ac trans]
+40.0 +15.0 23 +41 +41 опасность
перегрева
1000.8 974.9
18 13.08 штиль 0 10 км 5/0
[Ac trans]
+37.0 +18.0 33 +41 +41 опасность
перегрева
1002.2 976.2 +42.4
21 13.08 штиль 0 10 км ясно +35.0 +19.0 39 +40 +40 очень
душно
1002.7 976.9
00 14.08 штиль 0 10 км ясно +33.0 +20.0 46 +39 +39 очень
душно
1002.3 976.5
03 14.08 штиль 0 10 км 4/0
[Cc]
+30.6 +24.0 68 +42 +42 опасность
перегрева
1003.0 977.0
06 14.08 штиль 0 10 км ясно +34.0 +25.0 59 +47 +61 опасность
перегрева
1003.8 977.8 +30.2
09 14.08 ЮЗ 3 10 км ясно +41.4 +17.0 24 +44 +61 опасность
перегрева
1002.4 976.6
12 14.08 З 1 10 км ясно +43.8 +15.0 19 +45 +61 опасность
перегрева
1000.5 974.8
15 14.08 ЮЗ 1 10 км 4/0
[Ac trans]
+40.6 +17.0 25 +43 +43 опасность
перегрева
1000.2 974.3
18 14.08 З 1 10 км 4/0
[Ac trans]
+36.8 +19.0 35 +41 +41 опасность
перегрева
1001.2 975.1 +44.0
21 14.08 С 2 10 км 1/0
[Ac trans]
+34.5 +21.0 45 +42 +42 опасность
перегрева
1000.6 974.9
00 15.08 штиль 0 10 км 4/0
[Ac trans]
+32.9 +22.0 53 +42 +42 опасность
перегрева
999.2 973.5
03 15.08 Ю 3 10 км ясно +31.1 +24.0 66 +43 +43 опасность
перегрева
1001.4 975.5
06 15.08 ЮВ 2 10 км 3/0
[Ac trans]
+32.2 +26.0 70 +48 +56 опасность
перегрева
1002.6 976.5 +29.4
09 15.08 Ю 6 10 км ясно +37.8 +24.0 45 +49 +57 опасность
перегрева
1001.3 975.4
12 15.08 Ю 5 10 км ясно +40.4 +22.0 35 +48 +55 опасность
перегрева
999.0 973.2
15 15.08 ЮЗ 4 10 км 1/0
[Ac trans]
+39.4 +22.0 37 +47 +48 опасность
перегрева
998.2 972.3
18 15.08 ЮВ 2 10 км 3/0
[Ac lent]
+37.2 +24.0 47 +49 +49 опасность
перегрева
1000.8 974.8 +40.8
21 15.08 ЮЗ 2 10 км 3/0
[Ac trans]
+35.0 +24.0 53 +47 +47 опасность
перегрева
999.3 973.5
00 16.08 штиль 0 10 км 3/0
[Ac trans]
+32.6 +25.0 64 +46 +46 опасность
перегрева
999.7 973.9
03 16.08 Ю 1 10 км 6/4 1200 м
[Sc diur, vesp Ac trans]
+31.6 +26.0 72 +47 +47 опасность
перегрева
1000.7 974.8
06 16.08 Ю 2 8000 м мгла 1/1 1200 м
[Cu hum]
+33.0 +27.0 71 +51 +60 опасность
перегрева
1002.3 976.3 +31.0
09 16.08 ЮЗ 4 10 км ясно +38.4 +25.0 47 +52 +66 опасность
перегрева
1001.6 975.7
12 16.08 Ю 5 10 км 8/0
[Ac trans]
+37.0 +24.0 47 +48 +52 опасность
перегрева
1000.8 974.8
15 16.08 штиль 0 10 км 9/0
[Ac trans]
+35.0 +23.0 50 +45 +45 опасность
перегрева
1002.4 976.2
18 16.08 Ю 2 10 км 4/0
[Ac trans]
+34.8 +21.0 45 +42 +42 опасность
перегрева
1002.6 976.5 +42.0
21 16.08 Ю 1 10 км 5/1 1200 м
[Sc Ac lent]
+32.4 +26.0 69 +48 +48 опасность
перегрева
1003.2 977.2

 

Местоположение метеостанции Makkah (Саудовская Аравия): широта 21.43 долгота 39.77 высота над уровнем моря 240 м.

В архиве по умолчанию представлена погода в Makkah за последнюю неделю. Архивные данные за месяц целиком и за предыдущие месяцы, начиная с января 2011 года, Вы можете получить, выбрав интересующий диапазон дат из раскрывающегося списка и нажав кнопку "Ввод!".

Внимание! Время в таблицах - всемирное. Для получения местного времени необходимо прибавить поправку, которая в Makkah равна 3 ч.

Смотрите также архив погоды в соседних городах и на ближайших метеорологических станциях:

Погода в Mina (Саудовская Аравия) (10 км)
Погода в Arafat (Саудовская Аравия) (24 км)
Погода в Jeddah King Abdul Aziz (Саудовская Аравия) (68 км)
Погода в Al Taif (Саудовская Аравия) (81 км)
Погода в Al Baha (Саудовская Аравия) (232 км)
Погода в Port Sudan (Судан) (336 км)
Погода в Bisha (Саудовская Аравия) (338 км)
Погода в Madinah (Саудовская Аравия) (347 км)
Погода в Yanbu (Саудовская Аравия) (347 км)
Погода в Abha (Саудовская Аравия) (466 км)

Пояснения к столбцам:

Ветер - указаны скорость ветра в м/с - средняя за 10 мин, порывы в срок и между сроками (в фигурных скобках) и направление, откуда дует ветер: С - северный, СВ - северо-восточный, В - восточный, ЮВ - юго-восточный, Ю - южный, ЮЗ - юго-западный, З - западный, СЗ - северо-западный.
Видимость - горизонтальная дальность видимости в метрах или километрах. При видимости от 1 до 10 км при отсутствии осадков обычно наблюдается дымка, при ухудшении видимости до 1 км и менее - туман. В сухую погоду видимость может ухудшаться дымом, пылью или мглою.
Явления - указаны атмосферные явления, наблюдавшиеся в срок или в последний час перед сроком; фигурными скобками обозначены явления, наблюдавшиеся между сроками (за 1-3 часа до срока); квадратными скобками обозначены град или гололедные отложения с указанием их диаметра в мм.
Облачность - указаны через наклонную черту общая и нижняя облачность в баллах и высота нижней границы облаков в метрах; квадратными скобками обозначены формы облаков: Ci - перистые, Cs - перисто-слоистые, Cc - перисто-кучевые, Ac - высококучевые, As - высокослоистые, Sc - слоисто-кучевые, Ns - слоисто-дождевые, Cu - кучевые, Cb - кучево-дождевые. Подробнее классификацию облаков см. в Атласе облаков (PDF).
T - Температура воздуха - температура, измеренная на высоте 2 м над землей.
Td - Температура точки росы - температура, при понижении до которой содержащийся в воздухе водяной пар достигнет насыщения.
f - Относительная влажность воздуха - влажноcть воздуха, измеренная на высоте 2 м над землей.
Te - Эффективная температура - температура, которую ощущает одетый по сезону человек в тени. Характеристика душности погоды. При расчете учитывается влияние влажности воздуха и скорости ветра на теплоощущения человека.
Tes - Эффективная температура на солнце - температура, которую ощущает человек, с поправкой на солнечный нагрев. Характеристика знойности погоды. Зависит от высоты солнца над горизонтом, облачности и скорости ветра. Ночью, в пасмурную погоду, а также при ветре 12 м/с и более поправка равна нулю.
P - Атмосферное давление - приведенное к уровню моря атмосферное давление.
Po - Атмосферное давление - измеренное на уровне метеостанции атмосферное давление.
Tmin - Минимальная температура - минимум температуры воздуха на высоте 2 м над землей.
Tmax - Максимальная температура - максимум температуры воздуха на высоте 2 м над землей.
R - Количество осадков - Количество выпавших осадков за период времени, мм. При наведении курсора мыши на число - период времени, за который выпало указанное количество осадков.
R24 - Количество осадков - Количество выпавших осадков за 24 часа, мм.
S - Снежный покров - Высота снежного покрова, см. При наведении курсора мыши на число - состояние снежного покрова и степень покрытия местности в баллах.